map of HKG home
HKG - Airport
Location
City:  Hong Kong, Hong Kong
Name:Hong Kong International - Chek Lap Kok
ICAO:VHHH
IATA:HKG

Details
Type:Airport (Aerodrome, Airfield)
Use:International (customs port of entry)
Latitude:2218'32"N (22.308889)
Longitude:11354'53"E (113.914722)
Elevation:28 ft (9 m)
Variation:2.82W (WMM2015 magnetic declination)
-0.06 annual change
Runways:2
Longest:12467 × 197 ft (3800 × 60 m), paved

Time
Time Zone:UTC+8
Local Time:

Weather
METAR:VHHH 140730Z VRB03KT 9999 FEW030 22/14 Q1016 NOSIG
TAF:VHHH 140500Z 1406/1512 34010KT 7000 FEW030 SCT040 TX22/1407Z TX22/1506Z TN18/1423Z
BECMG 1409/1411 05010KT
BECMG 1503/1505 35010KT
TEMPO 1508/1512 05010KT

Related Locations
Nearby:
Farthest:SLVZ: 12416 mi / 19981 km
Villazon [Villazon Airport], M.Omiste, P, BO

Find:

   beyond  
but within

Other Information
Maps:
NOTAMs:
Links:
Sources:

  
flag of Hong Kong   

Airport Diagram

Airport diagram for HKG

Larger airport diagram (OBSOLETE) from NGA

Sectional Chart

Flight Planning
at skyvector.com

Satellite Image

Google Maps Satellite view

 

Copyright © 2004-2017 Karl L. Swartz. All rights reserved.
The Great Circle Mapper name and logo are trademarks of the Great Circle Mapper.
All other trademarks mentioned herein belong to their respective owners.
Please see credits for attibutions and further copyright information.

  Follow gcmap on Facebook Follow gcmap on Twitter Follow gcmap on Google+ GCmap on LinkedIn

hCard Microformat

Geo Microformat